N858PC LLBG-LLHA

Flight info

Callsign N858PC
Flight time 0h 29m
Altitude 1200
Route NETIVEI TOVALA NEMUHIM
Aircraft BE36/L-VD/A

Departure

Time 2026-04-26 09:06
Airport Ben Gurion International Airport (LLBG)

Arrival

Time 2026-04-26 09:36
Airport Uri Michaeli Haifa International Airport (LLHA)
Time Latitude Longitude Altitude Speed Heading
2026-04-26 08:57 32.00802 34.89810 114 ft 0 kts 296°
2026-04-26 08:59 32.00802 34.89809 114 ft 0 kts 296°
2026-04-26 09:01 32.00802 34.89810 114 ft 0 kts 296°
2026-04-26 09:01 32.00808 34.89796 114 ft 6 kts 298°
2026-04-26 09:01 32.00843 34.89712 114 ft 17 kts 298°
2026-04-26 09:02 32.00904 34.89582 114 ft 15 kts 298°
2026-04-26 09:02 32.00959 34.89461 115 ft 19 kts 297°
2026-04-26 09:02 32.01044 34.89310 114 ft 22 kts 332°
2026-04-26 09:02 32.01127 34.89348 114 ft 15 kts 27°
2026-04-26 09:03 32.01235 34.89420 114 ft 20 kts 34°
2026-04-26 09:03 32.01372 34.89507 114 ft 24 kts 29°
2026-04-26 09:03 32.01527 34.89608 114 ft 27 kts 29°
2026-04-26 09:03 32.01687 34.89709 113 ft 23 kts 28°
2026-04-26 09:04 32.01814 34.89768 112 ft 12 kts 333°
2026-04-26 09:04 32.01836 34.89678 112 ft 13 kts 257°
2026-04-26 09:04 32.01834 34.89665 112 ft 0 kts 259°
2026-04-26 09:05 32.01825 34.89605 112 ft 38 kts 259°
2026-04-26 09:06 32.01729 34.88984 143 ft 104 kts 259°
2026-04-26 09:06 32.01588 34.88081 409 ft 118 kts 260°
2026-04-26 09:06 32.01441 34.87117 760 ft 121 kts 264°
2026-04-26 09:06 32.01701 34.86195 1084 ft 128 kts 316°
2026-04-26 09:07 32.02544 34.85734 1294 ft 138 kts 346°
2026-04-26 09:07 32.03454 34.85601 1322 ft 130 kts 354°
2026-04-26 09:07 32.04344 34.85503 1272 ft 130 kts 353°
2026-04-26 09:07 32.05266 34.85366 1207 ft 138 kts 351°
2026-04-26 09:08 32.06237 34.85186 1194 ft 142 kts 349°
2026-04-26 09:08 32.07207 34.84958 1243 ft 142 kts 347°
2026-04-26 09:08 32.08175 34.84703 1265 ft 143 kts 347°
2026-04-26 09:08 32.09156 34.84457 1230 ft 146 kts 346°
2026-04-26 09:09 32.10051 34.83918 1202 ft 148 kts 313°
2026-04-26 09:09 32.10445 34.82808 1135 ft 150 kts 276°
2026-04-26 09:09 32.10346 34.81615 1202 ft 144 kts 259°
2026-04-26 09:09 32.10164 34.80458 1242 ft 140 kts 261°
2026-04-26 09:10 32.10074 34.79328 1312 ft 138 kts 272°
2026-04-26 09:10 32.10394 34.78273 1398 ft 137 kts 308°
2026-04-26 09:10 32.11234 34.77659 1245 ft 153 kts 345°
2026-04-26 09:10 32.12288 34.77718 1183 ft 153 kts 16°
2026-04-26 09:11 32.13273 34.78085 1178 ft 146 kts 17°
2026-04-26 09:11 32.14231 34.78465 1147 ft 144 kts 16°
2026-04-26 09:11 32.15155 34.78785 1311 ft 129 kts 14°
2026-04-26 09:11 32.15987 34.79029 1496 ft 118 kts 12°
2026-04-26 09:12 32.16786 34.79237 1573 ft 118 kts 11°
2026-04-26 09:12 32.17612 34.79468 1574 ft 124 kts 12°
2026-04-26 09:12 32.18456 34.79730 1603 ft 126 kts 16°
2026-04-26 09:12 32.19299 34.80020 1652 ft 126 kts 14°
2026-04-26 09:13 32.20150 34.80309 1686 ft 127 kts 16°
2026-04-26 09:13 32.20998 34.80602 1731 ft 127 kts 14°
2026-04-26 09:13 32.21858 34.80897 1724 ft 131 kts 16°
2026-04-26 09:13 32.22741 34.81213 1727 ft 133 kts 15°
2026-04-26 09:14 32.23648 34.81480 1672 ft 137 kts 13°
2026-04-26 09:14 32.24587 34.81743 1511 ft 137 kts 13°
2026-04-26 09:14 32.25468 34.82017 1515 ft 128 kts 14°
2026-04-26 09:14 32.26315 34.82264 1497 ft 123 kts 12°
2026-04-26 09:15 32.27150 34.82480 1489 ft 126 kts 11°
2026-04-26 09:15 32.28030 34.82703 1502 ft 132 kts 12°
2026-04-26 09:15 32.28943 34.82958 1518 ft 135 kts 15°
2026-04-26 09:15 32.29843 34.83284 1559 ft 137 kts 16°
2026-04-26 09:16 32.30771 34.83600 1556 ft 140 kts 14°
2026-04-26 09:16 32.31709 34.83879 1588 ft 141 kts 13°
2026-04-26 09:16 32.32350 34.84073 1530 ft 146 kts 13°
2026-04-26 09:16 32.33355 34.84369 1460 ft 149 kts 13°
2026-04-26 09:17 32.34346 34.84637 1516 ft 145 kts 12°
2026-04-26 09:17 32.35323 34.84899 1545 ft 144 kts 12°
2026-04-26 09:17 32.36302 34.85174 1539 ft 144 kts 12°
2026-04-26 09:17 32.37283 34.85443 1526 ft 146 kts 12°
2026-04-26 09:18 32.38281 34.85718 1486 ft 148 kts 12°
2026-04-26 09:18 32.39289 34.85994 1457 ft 149 kts 12°
2026-04-26 09:18 32.40285 34.86265 1483 ft 146 kts 12°
2026-04-26 09:18 32.41267 34.86530 1508 ft 144 kts 11°
2026-04-26 09:19 32.42252 34.86773 1511 ft 144 kts 11°
2026-04-26 09:19 32.43227 34.87016 1708 ft 148 kts 11°
2026-04-26 09:19 32.44227 34.87248 1987 ft 144 kts
2026-04-26 09:19 32.45205 34.87468 2037 ft 143 kts 10°
2026-04-26 09:20 32.46196 34.87698 2000 ft 147 kts 11°
2026-04-26 09:20 32.47200 34.87952 2023 ft 146 kts 11°
2026-04-26 09:20 32.48190 34.88193 2077 ft 144 kts 11°
2026-04-26 09:20 32.49173 34.88431 2115 ft 144 kts 11°
2026-04-26 09:21 32.50151 34.88677 2158 ft 143 kts 11°
2026-04-26 09:21 32.51122 34.88902 2151 ft 147 kts
2026-04-26 09:21 32.52147 34.89127 2087 ft 151 kts 11°
2026-04-26 09:21 32.53166 34.89400 2113 ft 148 kts 12°
2026-04-26 09:22 32.54158 34.89653 2185 ft 144 kts 11°
2026-04-26 09:22 32.55153 34.89860 2183 ft 146 kts
2026-04-26 09:22 32.56170 34.90049 2111 ft 152 kts
2026-04-26 09:22 32.57206 34.90246 2152 ft 147 kts
2026-04-26 09:23 32.58224 34.90437 2146 ft 148 kts
2026-04-26 09:23 32.59238 34.90602 2185 ft 146 kts
2026-04-26 09:23 32.60247 34.90758 2200 ft 147 kts
2026-04-26 09:23 32.61267 34.90900 2204 ft 147 kts
2026-04-26 09:24 32.62285 34.91051 2218 ft 147 kts
2026-04-26 09:24 32.63303 34.91189 2213 ft 149 kts
2026-04-26 09:24 32.64321 34.91397 2232 ft 148 kts 10°
2026-04-26 09:24 32.65336 34.91615 2229 ft 148 kts
2026-04-26 09:25 32.66362 34.91814 2185 ft 152 kts
2026-04-26 09:25 32.67416 34.92040 2106 ft 155 kts
2026-04-26 09:25 32.68483 34.92280 1997 ft 159 kts 11°
2026-04-26 09:25 32.69577 34.92506 1892 ft 160 kts
2026-04-26 09:26 32.70657 34.92763 1774 ft 162 kts 12°
2026-04-26 09:26 32.71776 34.93079 1648 ft 163 kts 13°
2026-04-26 09:26 32.72858 34.93390 1553 ft 162 kts 12°
2026-04-26 09:26 32.73956 34.93655 1497 ft 159 kts 10°
2026-04-26 09:27 32.75025 34.93891 1496 ft 154 kts
2026-04-26 09:27 32.76063 34.94111 1516 ft 150 kts
2026-04-26 09:27 32.77096 34.94285 1505 ft 150 kts
2026-04-26 09:27 32.78130 34.94407 1477 ft 149 kts
2026-04-26 09:28 32.79179 34.94473 1429 ft 151 kts
2026-04-26 09:28 32.80217 34.94557 1461 ft 148 kts
2026-04-26 09:28 32.81228 34.94752 1466 ft 148 kts 10°
2026-04-26 09:28 32.82238 34.95019 1456 ft 149 kts 15°
2026-04-26 09:29 32.83175 34.95504 1490 ft 147 kts 34°
2026-04-26 09:29 32.83782 34.96445 1464 ft 150 kts 70°
2026-04-26 09:29 32.83991 34.97675 1415 ft 152 kts 83°
2026-04-26 09:29 32.84039 34.98949 1378 ft 153 kts 91°
2026-04-26 09:30 32.83963 35.00195 1354 ft 153 kts 97°
2026-04-26 09:30 32.83827 35.01467 1246 ft 158 kts 98°
2026-04-26 09:30 32.83642 35.02759 1144 ft 159 kts 102°
2026-04-26 09:30 32.83385 35.04049 1029 ft 161 kts 106°
2026-04-26 09:31 32.82856 35.05123 1044 ft 145 kts 141°
2026-04-26 09:31 32.81950 35.05596 934 ft 142 kts 172°
2026-04-26 09:31 32.80985 35.05494 701 ft 135 kts 199°
2026-04-26 09:31 32.80302 35.04953 453 ft 107 kts 256°
2026-04-26 09:32 32.80774 35.04464 67 ft 110 kts 349°
2026-04-26 09:32 32.81417 35.04195 60 ft 100 kts 338°
2026-04-26 09:32 32.82110 35.03860 271 ft 113 kts 335°
2026-04-26 09:32 32.82822 35.03889 678 ft 110 kts 41°
2026-04-26 09:33 32.83086 35.04794 881 ft 124 kts 93°
2026-04-26 09:33 32.82652 35.05707 986 ft 140 kts 141°
2026-04-26 09:33 32.81766 35.06243 1045 ft 145 kts 156°
2026-04-26 09:33 32.80828 35.06764 1016 ft 152 kts 155°
2026-04-26 09:34 32.79869 35.07304 1033 ft 151 kts 159°
2026-04-26 09:34 32.78896 35.07333 974 ft 141 kts 204°
2026-04-26 09:34 32.78280 35.06516 773 ft 132 kts 250°
2026-04-26 09:34 32.78361 35.05536 602 ft 120 kts 308°
2026-04-26 09:35 32.79016 35.05088 392 ft 95 kts 338°
2026-04-26 09:35 32.79629 35.04905 274 ft 89 kts 354°
2026-04-26 09:35 32.80201 35.04731 117 ft 81 kts 338°
2026-04-26 09:35 32.80688 35.04517 24 ft 66 kts 339°
2026-04-26 09:36 32.81040 35.04363 21 ft 48 kts 340°
2026-04-26 09:36 32.81316 35.04241 23 ft 36 kts 340°
2026-04-26 09:36 32.81435 35.04192 24 ft 10 kts 348°
2026-04-26 09:36 32.81472 35.04234 24 ft 9 kts 70°
2026-04-26 09:37 32.81496 35.04313 22 ft 12 kts 72°
2026-04-26 09:37 32.81513 35.04361 21 ft 5 kts 22°
2026-04-26 09:37 32.81544 35.04345 22 ft 5 kts 303°
2026-04-26 09:37 32.81542 35.04326 22 ft 0 kts 198°
2026-04-26 09:38 32.81535 35.04334 22 ft 2 kts 89°
2026-04-26 09:38 32.81535 35.04336 22 ft 0 kts 78°